Tracking 31027 objects as of 19-Jul-2025
HD Live streaming from Space Station
objects crossing your sky now

STARLINK-1320

Track STARLINK-1320 now!
10-day predictions
STARLINK-1320 is classified as:


NORAD ID: 45572
Int'l Code: 2020-025AT
Perigee: 484.4 km
Apogee: 490.1 km
Inclination: 53.1 °
Period: 94.2 minutes
Semi major axis: 6858 km
RCS: Unknown
Launch date: April 22, 2020
Source: United States (US)
Launch site: AIR FORCE EASTERN TEST RANGE (AFETR)
Your satellite tracking list
Your tracking list is empty




NASA's NSSDC Master Catalog

Two Line Element Set (TLE):
1 45572U 20025AT  25199.87104879  .00043523  00000-0  15487-2 0  9996
2 45572  53.0640  20.3467 0004199  32.6295 327.4963 15.28559976290030
Source of the keplerian elements: AFSPC